www.pogodaiklimat.ru

Погода и климат >> Архив погоды >> Египет >> Миня


ПОГОДА в Миня

  • Прогноз погоды в Миня
  • Монитор погоды в Миня

АРХИВ ПОГОДЫ в Миня

Время (UTC), дата Ветер
(напр.,м/с)
 
Видим.   Явления Облачность Т
(С)
Тd
(С)
f
(%)
Тe
(С)
Тes
(С)
Комфортность P
(гПа)
Po
(гПа)
Тmin
(С)
Tmax
(С)
R
(мм)
R24
(мм)
S
(см)
03 9.06 СЗ 2 10 км ясно +21.7 +14.8 65 +25 +25 комфорт 1010.8 1006.1
06 9.06 СЗ 2 10 км ясно +25.4 +16.8 59 +29 +38 душно 1011.0 1006.4 +21.7
09 9.06 ЮЗ 2 10 км ясно +31.4 +11.7 30 +32 +53 опасность
солнечного
удара
1009.8 1005.3
12 9.06 СЗ 4 10 км ясно +34.9 +9.3 21 +34 +45 очень
жарко
1007.7 1003.2
15 9.06 З 4 10 км ясно +35.3 +3.8 14 +32 +35 жарко 1006.3 1001.9
18 9.06 З 2 10 км ясно +30.1 +6.7 23 +29 +29 жарко 1007.3 1002.8 +35.8
21 9.06 С 1 10 км ясно +27.6 +6.4 26 +27 +27 жарко 1007.9 1003.3
00 10.06 штиль 0 10 км ясно +24.4 +7.9 35 +25 +25 комфорт 1007.4 1002.8
03 10.06 ЮВ 2 10 км ясно +22.4 +8.9 42 +24 +24 комфорт 1007.9 1003.2
06 10.06 ЮВ 2 10 км ясно +28.5 +11.5 35 +29 +37 жарко 1008.5 1003.9 +21.9
09 10.06 З 3 10 км ясно +34.6 +11.1 24 +34 +51 опасность
солнечного
удара
1007.5 1003.0
12 10.06 СЗ 3 10 км 3/3 600 м
[Cu hum]
+37.1 +8.0 17 +35 +46 очень
жарко
1005.9 1001.5
15 10.06 З 4 10 км 3/3 600 м
[Cu hum]
+37.2 +6.2 15 +35 +36 очень
жарко
1004.9 1000.5
18 10.06 Ю 2 10 км ясно +33.0 +7.0 20 +31 +31 жарко 1006.1 1001.6 +38.1
21 10.06 Ю 2 10 км ясно +29.2 +6.6 24 +28 +28 жарко 1007.2 1002.7
03 11.06 Ю 2 10 км ясно +23.0 +9.4 42 +25 +25 комфорт 1008.3 1003.7
06 11.06 ЮВ 2 10 км ясно +29.4 +8.9 28 +29 +37 жарко 1009.1 1004.6 +22.8
09 11.06 СЗ 2 10 км ясно +36.6 +4.9 14 +34 +55 опасность
солнечного
удара
1008.8 1004.4
12 11.06 З 3 10 км ясно +38.7 +8.4 16 +37 +51 опасность
солнечного
удара
1007.4 1003.0
15 11.06 СЗ 7 10 км ясно +37.9 +4.7 13 +35 +36 очень
жарко
1007.3 1002.9
18 11.06 СЗ 2 10 км ясно +32.6 +9.4 24 +32 +32 жарко 1009.1 1004.6 +39.3
21 11.06 СВ 1 10 км ясно +28.9 +10.5 32 +29 +29 жарко 1010.1 1005.5
00 12.06 С 2 10 км ясно +26.4 +17.2 57 +30 +30 душно 1010.1 1005.5
06 12.06 СЗ 2 10 км ясно +27.6 +18.1 56 +32 +41 очень
душно
1011.9 1007.3 +24.0
09 12.06 СЗ 2 10 км ясно +33.8 +12.8 28 +34 +55 опасность
солнечного
удара
1011.3 1006.8
12 12.06 СЗ 7 10 км ясно +38.0 +4.7 13 +35 +40 очень
жарко
1009.0 1004.6
15 12.06 С 3 10 км ясно +36.6 +9.0 19 +35 +38 очень
жарко
1008.2 1003.8
00 13.06 СЗ 1 10 км ясно +24.6 +15.0 55 +27 +27 жарко 1011.0 1006.4
03 13.06 штиль 0 10 км ясно +22.8 +15.4 63 +27 +27 душно 1011.1 1006.4
06 13.06 СЗ 2 10 км ясно +27.2 +16.5 52 +31 +39 душно 1011.7 1007.1 +22.6
09 13.06 СЗ 3 10 км ясно +33.0 +18.1 41 +37 +56 опасность
солнечного
удара
1011.0 1006.5
12 13.06 С 3 10 км ясно +35.8 +9.4 20 +34 +49 очень
жарко
1009.0 1004.5
15 13.06 В 4 10 км ясно +34.6 +11.1 24 +34 +36 очень
жарко
1007.6 1003.1
18 13.06 С 3 10 км ясно +31.2 +13.2 33 +32 +32 жарко 1009.1 1004.6 +36.2
21 13.06 С 4 10 км ясно +28.6 +13.7 40 +30 +30 жарко 1010.4 1005.8
03 14.06 СЗ 1 10 км ясно +22.7 +16.0 66 +27 +27 душно 1009.7 1005.0
06 14.06 СЗ 2 10 км ясно +26.0 +16.8 57 +30 +38 душно 1010.4 1005.8 +22.5
09 14.06 С 3 10 км ясно +29.5 +15.6 43 +32 +51 опасность
солнечного
удара
1010.0 1005.4
12 14.06 С 4 10 км ясно +32.4 +15.0 35 +34 +47 очень
жарко
1007.9 1003.4
15 14.06 С 4 10 км ясно +33.6 +14.1 31 +35 +37 душно 1006.4 1001.9
18 14.06 СВ 1 10 км ясно +30.7 +14.2 37 +33 +33 душно 1007.2 1002.7 +34.1
21 14.06 штиль 0 10 км ясно +27.2 +16.8 53 +31 +31 душно 1007.6 1003.0
00 15.06 С 2 10 км ясно +26.7 +17.5 57 +31 +31 душно 1006.9 1002.3
03 15.06 СЗ 2 10 км ясно +24.4 +19.0 72 +29 +29 душно 1007.2 1002.6
06 15.06 СЗ 2 10 км ясно +26.0 +22.1 79 +34 +42 очень
душно
1008.2 1003.6 +24.2
09 15.06 СЗ 2 10 км ясно +30.7 +19.4 51 +36 +57 опасность
солнечного
удара
1007.8 1003.3
12 15.06 С 3 10 км ясно +33.9 +15.9 34 +36 +52 опасность
солнечного
удара
1009.2 1004.7
15 15.06 С 4 10 км ясно +34.6 +12.9 27 +35 +37 очень
жарко
1005.1 1000.6
18 15.06 СВ 2 10 км ясно +31.3 +12.6 32 +32 +32 жарко 1006.1 1001.6 +34.8
21 15.06 С 3 10 км ясно +29.0 +14.4 41 +31 +31 жарко 1007.5 1003.0
00 16.06 С 2 10 км ясно +26.9 +15.6 50 +30 +30 душно 1007.7 1003.1

 

Местоположение метеостанции Миня (Египет): широта 28.08 долгота 30.73 высота над уровнем моря 40 м.

В архиве по умолчанию представлена погода в Миня за последнюю неделю. Архивные данные за месяц целиком и за предыдущие месяцы, начиная с января 2011 года, Вы можете получить, выбрав интересующий диапазон дат из раскрывающегося списка и нажав кнопку "Ввод!".


*Определитесь, кто Вы:
робот инопланетянин человек

Внимание! Время в таблицах - всемирное. Для получения местного времени необходимо прибавить поправку, которая равна 2 ч.

Смотрите также архив погоды в соседних городах и на ближайших метеорологических станциях:

Погода в Асьюте (Египет) (118 км)
Погода в Бахарии (Египет) (182 км)
Погода в Каире (Египет) (237 км)
Погода в Рас-Седре (Египет) (256 км)
Погода в Абу Редис (Египет) (256 км)
Погода в Вади-эль-Натруон (Египет) (263 км)
Погода в Эль-Торе (Египет) (284 км)
Погода в Университете South Of Valley (Египет) (289 км)
Погода в Харге (Египет) (293 км)
Погода в Фарафре (Египет) (294 км)

Пояснения к столбцам:

Ветер - указаны скорость ветра в м/с - средняя за 10 мин, порывы в срок и между сроками (в фигурных скобках) и направление, откуда дует ветер: С - северный, СВ - северо-восточный, В - восточный, ЮВ - юго-восточный, Ю - южный, ЮЗ - юго-западный, З - западный, СЗ - северо-западный.
Видимость - горизонтальная дальность видимости в метрах или километрах. При видимости от 1 до 10 км при отсутствии осадков обычно наблюдается дымка, при ухудшении видимости до 1 км и менее - туман. В сухую погоду видимость может ухудшаться дымом, пылью или мглою.
Явления - указаны атмосферные явления, наблюдавшиеся в срок или в последний час перед сроком; фигурными скобками обозначены явления, наблюдавшиеся между сроками (за 1-3 часа до срока); квадратными скобками обозначены град или гололедные отложения с указанием их диаметра в мм.
Облачность - указаны через наклонную черту общая и нижняя облачность в баллах и высота нижней границы облаков в метрах; квадратными скобками обозначены формы облаков: Ci - перистые, Cs - перисто-слоистые, Cc - перисто-кучевые, Ac - высококучевые, As - высокослоистые, Sc - слоисто-кучевые, Ns - слоисто-дождевые, Cu - кучевые, Cb - кучево-дождевые. Подробнее классификацию облаков см. в Атласе облаков (PDF).
T - Температура воздуха - температура, измеренная на высоте 2 м над землей.
Td - Температура точки росы - температура, при понижении до которой содержащийся в воздухе водяной пар достигнет насыщения.
f - Относительная влажность воздуха - влажноcть воздуха, измеренная на высоте 2 м над землей.
Te - Эффективная температура - температура, которую ощущает одетый по сезону человек в тени. Характеристика душности погоды. При расчете учитывается влияние влажности воздуха и скорости ветра на теплоощущения человека.
Tes - Эффективная температура на солнце - температура, которую ощущает человек, с поправкой на солнечный нагрев. Характеристика знойности погоды. Зависит от высоты солнца над горизонтом, облачности и скорости ветра. Ночью, в пасмурную погоду, а также при ветре 12 м/с и более поправка равна нулю.
P - Атмосферное давление - приведенное к уровню моря атмосферное давление.
Po - Атмосферное давление - измеренное на уровне метеостанции атмосферное давление.
Tmin - Минимальная температура - минимум температуры воздуха на высоте 2 м над землей.
Tmax - Максимальная температура - максимум температуры воздуха на высоте 2 м над землей.
R - Количество осадков - Количество выпавших осадков за период времени, мм. При наведении курсора мыши на число - период времени, за который выпало указанное количество осадков.
R24 - Количество осадков - Количество выпавших осадков за 24 часа, мм.
S - Снежный покров - Высота снежного покрова, см. При наведении курсора мыши на число - состояние снежного покрова и степень покрытия местности в баллах.